Amsterdam, Netherlands

4:35 AM CEST on October 15, 2019 (GMT +0200)
Schiphol

Weather History for EHAM - August, 2019

Change the Weather History Date:

Sunday, August 11, 2019

  Actual Average Record
Temperature  
Mean Temperature 65 °F -  
Max Temperature 70 °F 67 °F 87 °F (1997)
Min Temperature 60 °F 54 °F 47 °F (2016)
Growing Degree Days 15 (Base 50)    
Moisture  
Dew Point 55 °F    
Average Humidity 67    
Maximum Humidity 82    
Minimum Humidity 45    
Precipitation  
Precipitation 0.00 in - - ()
Sea Level Pressure  
Sea Level Pressure 29.89 in    
Wind  
Wind Speed 17 mph ()    
Max Wind Speed 23 mph    
Max Gust Speed -    
Visibility 8.1 miles    
Events Rain    
Averages and records for this station are not official NWS values.
T = Trace of Precipitation, MM = Missing Value Source: Averaged Metar Reports

Daily Weather History Graph

Daily Weather History Graph

Search for Another Location

Airport or City:

Astronomy

Aug. 11, 2019 Rise Set
Actual Time 6:16 AM CEST 9:14 PM CEST
Civil Twilight 5:37 AM CEST 9:53 PM CEST
Nautical Twilight 4:45 AM CEST 10:44 PM CEST
Astronomical Twilight 3:39 AM CEST 11:49 PM CEST
Moon 6:57 PM CEST (8/11) 2:09 AM CEST (8/11)
Length of Visible Light 16h 16m
Length of Day
14h 57m
Waxing Gibbous, 85% of the Moon is Illuminated
Aug 11
Waxing Gibbous
Aug 15
Full
Aug 23
Last Quarter
Aug 30
New
Sep 6
First Quarter

Hourly Weather History & Observations

Time (CEST) Temp. Dew Point Humidity Pressure Visibility Wind Dir Wind Speed Gust Speed Precip Events Conditions
12:00 AM 65 °F 54 °F 58% 29.88 in 9 mi SW 22.4 mph - -   Partly Cloudy
12:25 AM 64.4 °F 53.6 °F 68% 29.86 in - SW 19.6 mph - N/A   Clear
12:55 AM 64.4 °F 53.6 °F 68% 29.86 in - SW 19.6 mph - N/A   Clear
1:00 AM 64 °F 53 °F 60% 29.88 in 11 mi SW 22.4 mph - -   Partly Cloudy
1:25 AM 64.4 °F 53.6 °F 68% 29.86 in - SW 21.9 mph - N/A   Clear
1:55 AM 62.6 °F 53.6 °F 72% 29.86 in - SW 18.4 mph - N/A   Clear
2:00 AM 63 °F 54 °F 63% 29.88 in 10 mi SW 20.1 mph - -   Partly Cloudy
2:25 AM 62.6 °F 53.6 °F 72% 29.86 in - SW 18.4 mph - N/A   Clear
2:55 AM 62.6 °F 53.6 °F 72% 29.86 in 6.2 mi SW 17.3 mph - N/A   Partly Cloudy
3:00 AM 63 °F 54 °F 63% 29.88 in 9 mi SW 15.7 mph - -   Partly Cloudy
3:25 AM 62.6 °F 53.6 °F 72% 29.86 in 6.2 mi SW 17.3 mph - N/A   Partly Cloudy
3:55 AM 62.6 °F 53.6 °F 72% 29.86 in 6.2 mi SW 16.1 mph - N/A   Partly Cloudy
4:00 AM 62 °F 54 °F 69% 29.88 in 9 mi SW 15.7 mph - -   Partly Cloudy
4:25 AM 62.6 °F 53.6 °F 72% 29.86 in 6.2 mi SW 17.3 mph - N/A   Partly Cloudy
4:55 AM 62.6 °F 53.6 °F 72% 29.86 in 6.2 mi SW 16.1 mph - N/A   Partly Cloudy
5:25 AM 60.8 °F 55.4 °F 82% 29.89 in 6.2 mi SSW 13.8 mph - N/A   Partly Cloudy
5:55 AM 60.8 °F 55.4 °F 82% 29.89 in 6.2 mi SSW 18.4 mph - N/A   Partly Cloudy
6:00 AM 61 °F 55 °F 73% 29.90 in 10 mi SSW 20.1 mph - -   Partly Cloudy
6:25 AM 60.8 °F 55.4 °F 82% 29.89 in 6.2 mi SSW 19.6 mph - N/A Rain Light Rain Showers
6:55 AM 60.8 °F 55.4 °F 82% 29.89 in 6.2 mi SSW 18.4 mph - N/A   Scattered Clouds
7:00 AM 61 °F 54 °F 73% 29.90 in 10 mi SSW 17.9 mph - - Rain Rain
7:25 AM 60.8 °F 55.4 °F 82% 29.89 in 6.2 mi SSW 18.4 mph - N/A   Partly Cloudy
7:55 AM 62.6 °F 55.4 °F 77% 29.89 in 6.2 mi SSW 17.3 mph - N/A   Partly Cloudy
8:25 AM 62.6 °F 55.4 °F 77% 29.89 in 6.2 mi SSW 18.4 mph - N/A   Partly Cloudy
8:55 AM 64.4 °F 57.2 °F 77% 29.89 in 6.2 mi SSW 16.1 mph - N/A   Partly Cloudy
9:00 AM 65 °F 56 °F 65% 29.91 in 9 mi SSW 15.7 mph - -   Partly Cloudy
9:25 AM 64.4 °F 55.4 °F 73% 29.89 in 6.2 mi SSW 19.6 mph - N/A Rain Light Rain Showers
9:55 AM 62.6 °F 57.2 °F 82% 29.89 in 6.2 mi SSW 21.9 mph - N/A   Partly Cloudy
10:25 AM 66.2 °F 57.2 °F 73% 29.89 in 6.2 mi SW 19.6 mph - N/A   Partly Cloudy
10:55 AM 66.2 °F 55.4 °F 68% 29.89 in 6.2 mi SW 23.0 mph - N/A   Partly Cloudy
11:00 AM 68 °F 55 °F 55% 29.91 in 11 mi SSW 22.4 mph - - Rain Rain
11:25 AM 69.8 °F 55.4 °F 60% 29.89 in 6.2 mi SW 20.7 mph - N/A   Partly Cloudy
11:55 AM 68.0 °F 53.6 °F 60% 29.92 in 6.2 mi SW 19.6 mph - N/A   Scattered Clouds
12:25 PM 68.0 °F 55.4 °F 64% 29.92 in 6.2 mi SSW 20.7 mph - N/A   Partly Cloudy
12:55 PM 68.0 °F 53.6 °F 60% 29.92 in 6.2 mi SW 20.7 mph - N/A Rain Light Rain Showers
1:00 PM 69 °F 55 °F 52% 29.92 in 15 mi SW 22.4 mph - - Rain Light Rain Showers
1:25 PM 69.8 °F 55.4 °F 60% 29.92 in 6.2 mi SSW 18.4 mph - N/A   Partly Cloudy
1:55 PM 68.0 °F 53.6 °F 60% 29.92 in 6.2 mi SW 19.6 mph - N/A   Partly Cloudy
2:00 PM 69 °F 55 °F 51% 29.91 in 17 mi SW 17.9 mph - - Rain Rain
2:25 PM 68.0 °F 53.6 °F 60% 29.89 in 6.2 mi SW 17.3 mph - N/A   Partly Cloudy
2:55 PM 68.0 °F 53.6 °F 60% 29.89 in 6.2 mi SW 18.4 mph - N/A   Partly Cloudy
3:00 PM 69 °F 55 °F 51% 29.91 in 19 mi WSW 17.9 mph - -   Partly Cloudy
3:25 PM 68.0 °F 53.6 °F 60% 29.89 in 6.2 mi SW 17.3 mph - N/A Rain Light Rain Showers
3:55 PM 68.0 °F 53.6 °F 60% 29.89 in 6.2 mi WSW 20.7 mph - N/A   Partly Cloudy
4:00 PM 69 °F 55 °F 51% 29.90 in 15 mi SW 17.9 mph - - Rain Light Rain Showers
4:25 PM 69.8 °F 53.6 °F 56% 29.89 in 6.2 mi SW 19.6 mph - N/A   Partly Cloudy
4:55 PM 69.8 °F 53.6 °F 56% 29.89 in 6.2 mi SW 19.6 mph - N/A   Partly Cloudy
5:00 PM 70 °F 53 °F 45% 29.89 in 19 mi SW 20.1 mph - - Rain Rain
5:25 PM 68.0 °F 55.4 °F 64% 29.89 in 6.2 mi WSW 19.6 mph - N/A   Partly Cloudy
5:55 PM 68.0 °F 55.4 °F 64% 29.89 in 6.2 mi WSW 16.1 mph - N/A   Partly Cloudy
6:25 PM 68.0 °F 55.4 °F 64% 29.89 in 6.2 mi SW 18.4 mph - N/A   Partly Cloudy
6:55 PM 66.2 °F 55.4 °F 68% 29.89 in 6.2 mi SW 16.1 mph - N/A   Partly Cloudy
7:25 PM 66.2 °F 55.4 °F 68% 29.89 in 6.2 mi SW 16.1 mph - N/A   Partly Cloudy
7:55 PM 66.2 °F 55.4 °F 68% 29.89 in 6.2 mi SW 15.0 mph - N/A   Partly Cloudy
8:25 PM 66.2 °F 55.4 °F 68% 29.89 in 6.2 mi SW 15.0 mph - N/A   Partly Cloudy
8:55 PM 64.4 °F 55.4 °F 73% 29.89 in 6.2 mi SSW 16.1 mph - N/A   Partly Cloudy
9:00 PM 65 °F 56 °F 64% 29.91 in 14 mi SW 15.7 mph - -   Partly Cloudy
9:25 PM 64.4 °F 55.4 °F 73% 29.89 in 6.2 mi SSW 13.8 mph - N/A   Partly Cloudy
9:55 PM 64.4 °F 55.4 °F 73% 29.92 in 6.2 mi SSW 11.5 mph - N/A   Partly Cloudy
10:00 PM 64 °F 56 °F 67% 29.92 in 14 mi SSW 13.4 mph - -   Partly Cloudy
10:25 PM 62.6 °F 55.4 °F 77% 29.92 in 6.2 mi SW 13.8 mph - N/A   Partly Cloudy
10:55 PM 62.6 °F 53.6 °F 72% 29.92 in 6.2 mi SW 10.4 mph - N/A   Partly Cloudy
11:00 PM 62 °F 54 °F 66% 29.92 in 17 mi SSW 11.2 mph - -   Partly Cloudy
11:25 PM 62.6 °F 53.6 °F 72% 29.92 in 6.2 mi SSW 10.4 mph - N/A   Partly Cloudy
11:55 PM 60.8 °F 53.6 °F 77% 29.92 in 6.2 mi SSW 11.5 mph - N/A   Partly Cloudy